When you browse on this site, cookies collect data to enhance your experience and personalize the content and advertising you see.
Visit our Privacy Policy to learn more. By continuing to use the site, you agree to this use of cookies and data.
  • In Slovakia
  • List of Countries
  • For 7 days
  • Water Temperature
  • Weather Map
  • Weather Widgets
  • user-avatar
    Login

    Hourly Weather Brest

    Today, 25 August, Sunday

    Time Temperature Precipitation Wind Pressure Humidity
    00:00 +16°C° 0 mm 2 mps 757 mmHg 68%
    01:00 +16°C° 0 mm 2 mps 757 mmHg 70%
    02:00 +16°C° 0 mm 2 mps 757 mmHg 74%
    03:00 +15°C° 0 mm 2 mps 757 mmHg 75%
    04:00 +15°C° 0 mm 2 mps 757 mmHg 77%
    05:00 +15°C° 0 mm 2 mps 757 mmHg 79%
    06:00 +16°C° 0 mm 2 mps 757 mmHg 75%
    07:00 +17°C° 0 mm 3 mps 757 mmHg 72%
    08:00 +19°C° 0 mm 3 mps 757 mmHg 68%
    09:00 +21°C° 0 mm 3 mps 757 mmHg 62%
    10:00 +24°C° 0 mm 3 mps 757 mmHg 55%
    11:00 +25°C° 0 mm 3 mps 757 mmHg 49%
    12:00 +26°C° 0 mm 4 mps 757 mmHg 47%
    13:00 +27°C° 0 mm 4 mps 757 mmHg 44%
    14:00 +28°C° 0 mm 4 mps 757 mmHg 42%
    15:00 +27°C° 0 mm 4 mps 757 mmHg 44%
    16:00 +27°C° 0 mm 4 mps 756 mmHg 46%
    17:00 +27°C° 0 mm 4 mps 756 mmHg 48%
    18:00 +25°C° 0 mm 3 mps 756 mmHg 55%
    19:00 +22°C° 0 mm 3 mps 756 mmHg 62%
    20:00 +20°C° 0 mm 3 mps 757 mmHg 69%
    21:00 +19°C° 0 mm 3 mps 756 mmHg 70%
    22:00 +19°C° 0 mm 3 mps 756 mmHg 72%
    23:00 +18°C° 0 mm 3 mps 756 mmHg 74%

    Tomorrow, 26 August, Monday

    Time Temperature Precipitation Wind Pressure Humidity
    00:00 +17°C° 0 mm 3 mps 757 mmHg 76%
    01:00 +17°C° 0 mm 3 mps 757 mmHg 78%
    02:00 +17°C° 0 mm 3 mps 757 mmHg 80%
    03:00 +16°C° 0 mm 3 mps 757 mmHg 80%
    04:00 +16°C° 0 mm 3 mps 757 mmHg 80%
    05:00 +16°C° 0 mm 3 mps 756 mmHg 80%
    06:00 +17°C° 0 mm 3 mps 756 mmHg 75%
    07:00 +18°C° 0 mm 3 mps 756 mmHg 71%
    08:00 +19°C° 0 mm 3 mps 756 mmHg 66%
    09:00 +21°C° 0 mm 4 mps 756 mmHg 61%
    10:00 +23°C° 0 mm 4 mps 757 mmHg 56%
    11:00 +26°C° 0 mm 4 mps 757 mmHg 51%
    12:00 +27°C° 0 mm 4 mps 756 mmHg 49%
    13:00 +28°C° 0 mm 4 mps 756 mmHg 47%
    14:00 +28°C° 0 mm 4 mps 756 mmHg 45%
    15:00 +28°C° 0 mm 4 mps 756 mmHg 47%
    16:00 +28°C° 0 mm 4 mps 756 mmHg 49%
    17:00 +28°C° 0 mm 4 mps 755 mmHg 50%
    18:00 +26°C° 0 mm 3 mps 755 mmHg 56%
    19:00 +24°C° 0 mm 3 mps 755 mmHg 63%
    20:00 +22°C° 0 mm 3 mps 755 mmHg 69%
    21:00 +21°C° 0 mm 3 mps 755 mmHg 72%
    22:00 +20°C° 0 mm 3 mps 755 mmHg 75%
    23:00 +19°C° 0 mm 3 mps 755 mmHg 78%

    Day after tomorrow, 27 August, Tuesday

    Time Temperature Precipitation Wind Pressure Humidity
    00:00 +19°C° 0 mm 3 mps 755 mmHg 79%
    01:00 +19°C° 0 mm 3 mps 755 mmHg 80%
    02:00 +18°C° 0 mm 3 mps 755 mmHg 82%
    03:00 +18°C° 0 mm 3 mps 755 mmHg 83%
    04:00 +18°C° 0 mm 3 mps 755 mmHg 83%
    05:00 +17°C° 0 mm 3 mps 755 mmHg 84%
    06:00 +18°C° 0 mm 3 mps 755 mmHg 80%
    07:00 +20°C° 0 mm 3 mps 755 mmHg 76%
    08:00 +21°C° 0 mm 4 mps 756 mmHg 72%
    09:00 +23°C° 0 mm 4 mps 756 mmHg 66%
    10:00 +26°C° 0 mm 4 mps 756 mmHg 59%
    11:00 +28°C° 0 mm 4 mps 756 mmHg 52%
    12:00 +28°C° 0 mm 4 mps 756 mmHg 49%
    13:00 +29°C° 0 mm 4 mps 756 mmHg 47%
    14:00 +30°C° 0 mm 4 mps 756 mmHg 44%
    15:00 +29°C° 0 mm 4 mps 755 mmHg 45%
    16:00 +29°C° 0 mm 4 mps 755 mmHg 47%
    17:00 +29°C° 0 mm 4 mps 755 mmHg 48%
    18:00 +27°C° 0 mm 3 mps 755 mmHg 56%
    19:00 +25°C° 0 mm 3 mps 755 mmHg 63%
    20:00 +22°C° 0 mm 3 mps 755 mmHg 71%
    21:00 +21°C° 0 mm 3 mps 755 mmHg 73%
    22:00 +20°C° 0 mm 3 mps 755 mmHg 75%
    23:00 +20°C° 0 mm 3 mps 755 mmHg 77%

    28 August, Wednesday

    Time Temperature Precipitation Wind Pressure Humidity
    00:00 +19°C° 0 mm 3 mps 755 mmHg 79%
    01:00 +19°C° 0 mm 3 mps 755 mmHg 82%
    02:00 +18°C° 0 mm 3 mps 755 mmHg 84%
    03:00 +18°C° 0 mm 3 mps 755 mmHg 85%
    04:00 +17°C° 0 mm 3 mps 755 mmHg 85%
    05:00 +17°C° 0 mm 3 mps 755 mmHg 86%
    06:00 +18°C° 0 mm 3 mps 755 mmHg 81%
    07:00 +19°C° 0 mm 3 mps 755 mmHg 76%
    08:00 +20°C° 0 mm 4 mps 755 mmHg 71%
    09:00 +22°C° 0 mm 4 mps 755 mmHg 65%
    10:00 +25°C° 0 mm 4 mps 754 mmHg 59%
    11:00 +27°C° 0 mm 5 mps 754 mmHg 52%
    12:00 +28°C° 0 mm 5 mps 754 mmHg 50%
    13:00 +28°C° 0 mm 5 mps 754 mmHg 48%
    14:00 +29°C° 0 mm 5 mps 754 mmHg 46%
    15:00 +29°C° 0 mm 5 mps 754 mmHg 47%
    16:00 +28°C° 0 mm 5 mps 754 mmHg 49%
    17:00 +28°C° 0 mm 5 mps 753 mmHg 51%
    18:00 +26°C° 0 mm 4 mps 753 mmHg 58%
    19:00 +25°C° 0 mm 4 mps 753 mmHg 65%
    20:00 +22°C° 0 mm 4 mps 753 mmHg 72%
    21:00 +21°C° 0 mm 4 mps 753 mmHg 74%
    22:00 +20°C° 0 mm 4 mps 753 mmHg 76%
    23:00 +19°C° 0 mm 4 mps 753 mmHg 78%

    29 August, Thursday

    Time Temperature Precipitation Wind Pressure Humidity
    00:00 +19°C° 0 mm 4 mps 753 mmHg 80%
    01:00 +18°C° 0 mm 4 mps 753 mmHg 81%
    02:00 +18°C° 0 mm 3 mps 753 mmHg 83%
    03:00 +17°C° 0 mm 4 mps 753 mmHg 84%
    04:00 +17°C° 0 mm 4 mps 753 mmHg 85%
    05:00 +17°C° 0 mm 4 mps 753 mmHg 86%
    06:00 +18°C° 0 mm 4 mps 753 mmHg 82%
    07:00 +19°C° 0 mm 5 mps 753 mmHg 78%
    08:00 +20°C° 0 mm 5 mps 752 mmHg 73%
    09:00 +22°C° 0 mm 5 mps 753 mmHg 67%
    10:00 +25°C° 0 mm 5 mps 753 mmHg 60%
    11:00 +26°C° 0 mm 6 mps 753 mmHg 54%
    12:00 +27°C° 0 mm 6 mps 753 mmHg 52%
    13:00 +28°C° 0 mm 5 mps 752 mmHg 50%
    14:00 +28°C° 0 mm 5 mps 752 mmHg 48%
    15:00 +28°C° 0 mm 5 mps 752 mmHg 49%
    16:00 +28°C° 0 mm 5 mps 752 mmHg 51%
    17:00 +27°C° 0 mm 5 mps 751 mmHg 52%
    18:00 +26°C° 0 mm 5 mps 751 mmHg 58%
    19:00 +23°C° 0 mm 4 mps 751 mmHg 63%
    20:00 +21°C° 0 mm 4 mps 751 mmHg 69%
    21:00 +20°C° 0 mm 4 mps 751 mmHg 70%
    22:00 +20°C° 0 mm 4 mps 752 mmHg 70%
    23:00 +19°C° 0 mm 4 mps 752 mmHg 71%

    30 August, Friday

    Time Temperature Precipitation Wind Pressure Humidity
    00:00 +18°C° 0 mm 4 mps 752 mmHg 72%
    01:00 +18°C° 0 mm 4 mps 751 mmHg 72%
    02:00 +17°C° 0 mm 4 mps 751 mmHg 73%
    03:00 +17°C° 0 mm 4 mps 751 mmHg 73%
    04:00 +15°C° 0 mm 4 mps 751 mmHg 72%
    05:00 +15°C° 0 mm 4 mps 751 mmHg 72%
    06:00 +15°C° 0 mm 4 mps 751 mmHg 67%
    07:00 +17°C° 0 mm 4 mps 751 mmHg 63%
    08:00 +18°C° 0 mm 4 mps 751 mmHg 59%
    09:00 +20°C° 0 mm 4 mps 752 mmHg 54%
    10:00 +22°C° 0 mm 4 mps 752 mmHg 50%
    11:00 +25°C° 0 mm 4 mps 752 mmHg 46%
    12:00 +26°C° 0 mm 4 mps 752 mmHg 45%
    13:00 +27°C° 0 mm 4 mps 752 mmHg 43%
    14:00 +28°C° 0 mm 4 mps 752 mmHg 42%
    15:00 +28°C° 0 mm 4 mps 751 mmHg 44%
    16:00 +28°C° 0 mm 4 mps 751 mmHg 45%
    17:00 +27°C° 0 mm 3 mps 751 mmHg 47%
    18:00 +26°C° 0 mm 3 mps 751 mmHg 54%
    19:00 +24°C° 0 mm 3 mps 751 mmHg 61%
    20:00 +21°C° 0 mm 2 mps 751 mmHg 68%
    21:00 +20°C° 0 mm 3 mps 752 mmHg 70%
    22:00 +20°C° 0 mm 3 mps 752 mmHg 72%
    23:00 +19°C° 0 mm 3 mps 752 mmHg 73%
    Show more